Regional Weather Roundup
Issued by NWS

Home | Current Version | Previous Version | Graphics & Text | Print | Product List | Glossary On
Versions: 1 2 3 4 5 6 7 8 9 10 11 12 13 14 15 16 17 18 19 20 21 22 23 24 25 26 27 28 29 30 31 32 33 34 35 36 37 38 39 40 41 42 43 44 45 46 47 48 49 50
000
ASUS43 KDTX 202310
RWRMI
MICHIGAN HOURLY REGIONAL WEATHER ROUNDUP
NATIONAL WEATHER SERVICE DETROIT/PONTIAC MI
600 PM EST SAT DEC 20 2014

NOTE: "FAIR" INDICATES FEW OR NO CLOUDS BELOW 12,000 FEET WITH NO
SIGNIFICANT WEATHER AND/OR OBSTRUCTION TO VISIBILITY.

MIZ047>049-052>055-059>063-066>070-074>076-081>083-210000-
SOUTHEAST LOWER MICHIGAN

CITY           SKY/WX    TMP DP  RH WIND       PRES   REMARKS
ADRIAN         CLOUDY    30  20  66 CALM      30.27S
ALMA           CLOUDY    28  24  86 CALM      30.27S
ANN ARBOR      CLOUDY    30  21  69 CALM      30.27R
BAD AXE        CLOUDY    28  23  82 CALM      30.28S
DETROIT CITY   CLOUDY    32  21  64 CALM      30.29R
DETROIT        CLOUDY    30  22  72 CALM      30.29R
FLINT          CLOUDY    31  20  63 CALM      30.27S
GROSSE ILE     CLOUDY    30  25  80 CALM      30.27S
HILLSDALE      CLOUDY    29  22  75 CALM      30.24S
HOWELL         CLOUDY    29  22  74 CALM      30.26R

CITY           SKY/WX    TMP DP  RH WIND       PRES   REMARKS
JACKSON        CLOUDY    29  22  75 CALM      30.26R
LAMBERTVILLE   CLOUDY    32  23  69 CALM      30.28R
LANSING        CLOUDY    29  20  69 CALM      30.27S
LAPEER         NOT AVBL
MASON          CLOUDY    28  21  75 CALM      30.26S
MONROE         CLOUDY    30  25  80 CALM      30.27R
MT. CLEMENS    CLOUDY    30  21  70 VRB1      30.26R
PONTIAC        CLOUDY    28  19  69 CALM      30.25S
PORT HOPE        N/A     29  21  72 W3        30.27R
PORT HURON     CLOUDY    28  23  80 CALM      30.28S
TRI CITIES     MOCLDY    30  21  69 CALM      30.29R
YPSILANTI      CLOUDY    32  24  72 CALM      30.28R
$$
MIZ043>046-050>051-056>058-064>065-071>073-077>080-210000-
SOUTHWEST LOWER MICHIGAN

CITY           SKY/WX    TMP DP  RH WIND       PRES   REMARKS
BATTLE CREEK   CLOUDY    29  22  75 W3        30.26R
BENTON HARBOR  CLOUDY    32  26  78 S3        30.26S
BIG RAPIDS     CLOUDY    30  25  80 CALM      30.24S
COLDWATER      CLOUDY    30  23  74 CALM      30.26R
HOLLAND        CLOUDY    31  27  85 SE5       30.27R FOG
GRAND RAPIDS   LGT SNOW  31  25  78 SW6       30.26S
KALAMAZOO      CLOUDY    30  25  81 SW3       30.27R
MARSHALL       MOCLDY    27  21  78 CALM      30.26R
MUSKEGON       LGT SNOW  30  25  81 SE7       30.27R
$$
MIZ016>042-210000-
NORTHERN LOWER MICHIGAN

CITY           SKY/WX    TMP DP  RH WIND       PRES   REMARKS
ALPENA         MOCLDY    25  20  81 CALM      30.28R
BEAVER ISLAND  CLOUDY    29  25  86 SE3       30.25S
BELLAIRE       CLOUDY    29  23  78 SE3       30.27S
CADILLAC       CLOUDY    26  21  81 CALM      30.22S
CHARLEVOIX     CLOUDY    28  24  82 SE5       30.28F
FRANKFORT      CLOUDY    29  25  82 SE3       30.25S
GAYLORD        CLOUDY    25  18  74 CALM      30.23R
GRAYLING       CLOUDY    21  19  92 CALM      30.25S
HARBOR SPRINGS CLOUDY    26  20  80 NE3       30.26F
HOUGHTON LAKE  MOCLDY    22  18  85 N3        30.25R
MANISTEE       CLOUDY    28  21  74 SE3       30.26S
OSCODA         MOCLDY    27  22  83 CALM      30.27S
PELLSTON       MOCLDY    23  18  81 CALM      30.27S
TRAVERSE CITY  CLOUDY    30  23  75 SE3       30.25S
$$
MIZ007>008-015-210000-
EASTERN UPPER MICHIGAN

CITY           SKY/WX    TMP DP  RH WIND       PRES   REMARKS
KINROSS        CLOUDY    25  21  86 E3        30.27R
MACKINAC ISLAN MOCLDY    26  21  80 S3        30.26S
NEWBERRY       CLOUDY    26  24  90 S7        30.24R
S. S. MARIE    CLOUDY    24  17  74 SE3       30.25F
$$
MIZ004>006-011>014-085-210000-
CENTRAL UPPER MICHIGAN

CITY           SKY/WX    TMP DP  RH WIND       PRES   REMARKS
MANISTIQUE     CLOUDY    29  24  82 MISG      30.24S
ESCANABA       CLOUDY    28  21  74 CALM      30.23S
MENOMINEE      CLOUDY    28  25  86 SE3       30.23S
SAWYER-GWINN   CLOUDY    25  23  93 S7        30.18S
$$
MIZ001>003-009>011-084-210000-
WESTERN UPPER MICHIGAN

CITY           SKY/WX    TMP DP  RH WIND       PRES   REMARKS
IRON MOUNTAIN  CLOUDY    28  23  81 SE3       30.18S
HOUGHTON       CLOUDY    27  23  85 S5        30.14S
COPPER HARBOR    N/A     29  24  82 SW5       30.17S
IRONWOOD       CLOUDY    30  27  86 SE5       30.10F
$$

ABBREVIATIONS USED IN REMARKS
   TC - TEMPERATURE IN CELSIUS
  WCI - WIND CHILL INDEX
   HX - HEAT INDEX
  VSB - VISIBILITY



USA.gov is the U.S. government's official web portal to all federal, state and local government web resources and services.